Track ONEWEB-0334 now! 10-day predictions ONEWEB-0334 is classified as:
1 49200U 21083Q 22136.58334491 .00022566 00000-0 23316-2 0 9998 2 49200 87.2059 241.6951 0005282 85.2335 91.9441 14.90024200 37694